Weather History for KCPC - March, 2014

Change the Weather History Date:

Saturday, March 15, 2014

  Actual Average (KLBT) Record (KLBT)
Temperature  
Mean Temperature 60 °F 54 °F  
Max Temperature 73 °F 66 °F 83 °F (2012)
Min Temperature 48 °F 42 °F 27 °F (2013)
Degree Days  
Heating Degree Days 4 11  
Month to date heating degree days 199  
Since 1 July heating degree days 2429  
Cooling Degree Days 0 0  
Month to date cooling degree days 0  
Year to date cooling degree days 3  
Growing Degree Days 10 (Base 50)    
Moisture  
Dew Point 40 °F    
Average Humidity 49    
Maximum Humidity 73    
Minimum Humidity 25    
Precipitation  
Precipitation 0.00 in 0.11 in 1.01 in (2001)
Month to date precipitation 1.63  
Year to date precipitation 7.50  
Sea Level Pressure  
Sea Level Pressure 30.06 in    
Wind  
Wind Speed 5 mph (SW)    
Max Wind Speed 12 mph    
Max Gust Speed 18 mph    
Visibility 10 miles    
Events      
T = Trace of Precipitation, MM = Missing Value Source: NWS Daily Summary

Daily Weather History Graph

Daily Weather History Graph

Search for Another Location

Airport or City:

Trip Planner

Search our weather history database for the weather conditions in past years. The results will help you decide how hot, cold, wet, or windy it might be!

Date:

Astronomy

Mar. 15, 2014 Rise Set
Actual Time 7:25 AM EDT 7:22 PM EDT
Civil Twilight 7:00 AM EDT 7:47 PM EDT
Nautical Twilight 6:31 AM EDT 8:16 PM EDT
Astronomical Twilight 6:02 AM EDT 8:46 PM EDT
Moon 6:40 PM EDT (3/15) 6:34 AM EDT (3/15)
Length of Visible Light 12h 47m
Length of Day
11h 57m
Waxing Gibbous, 99% of the Moon is Illuminated
Mar 15
Waxing Gibbous
Mar 16
Full
Mar 23
Last Quarter
Mar 30
New
Apr 7
First Quarter

Hourly Weather History & Observations

Time (EDT) Temp. Dew Point Humidity Pressure Visibility Wind Dir Wind Speed Gust Speed Precip Events Conditions
12:15 AM 49.1 °F 40.1 °F 71% 30.16 in 10.0 mi SW 3.5 mph - N/A   Clear
12:35 AM 48.9 °F 40.3 °F 72% 30.16 in 10.0 mi SSW 3.5 mph - N/A   Clear
12:55 AM 49.1 °F 40.6 °F 73% 30.15 in 10.0 mi SSW 3.5 mph - N/A   Clear
1:15 AM 50.2 °F 40.8 °F 70% 30.15 in 10.0 mi SW 3.5 mph - N/A   Clear
1:35 AM 50.2 °F 41.7 °F 73% 30.14 in 10.0 mi SW 3.5 mph - N/A   Clear
1:55 AM 50.9 °F 42.1 °F 72% 30.13 in 10.0 mi SSW 3.5 mph - N/A   Scattered Clouds
2:15 AM 52.5 °F 42.3 °F 68% 30.13 in 10.0 mi SW 5.8 mph - N/A   Scattered Clouds
2:35 AM 54.0 °F 42.8 °F 66% 30.11 in 10.0 mi SSW 9.2 mph - N/A   Scattered Clouds
2:55 AM 54.1 °F 43.3 °F 67% 30.11 in 10.0 mi SSW 8.1 mph - N/A   Scattered Clouds
3:15 AM 55.6 °F 44.2 °F 66% 30.09 in 10.0 mi SSW 5.8 mph - N/A   Mostly Cloudy
3:35 AM 56.5 °F 44.8 °F 65% 30.10 in 10.0 mi SW 6.9 mph - N/A   Overcast
3:55 AM 56.7 °F 45.1 °F 65% 30.09 in 10.0 mi SW 9.2 mph - N/A   Overcast
4:15 AM 56.8 °F 45.0 °F 64% 30.09 in 10.0 mi WSW 5.8 mph - N/A   Overcast
4:35 AM 56.3 °F 44.8 °F 65% 30.09 in 10.0 mi SW 9.2 mph - N/A   Mostly Cloudy
4:55 AM 56.1 °F 45.0 °F 66% 30.09 in 10.0 mi SW 6.9 mph - N/A   Scattered Clouds
5:15 AM 55.8 °F 45.0 °F 67% 30.09 in 10.0 mi SW 4.6 mph - N/A   Mostly Cloudy
5:35 AM 55.6 °F 45.1 °F 68% 30.08 in 10.0 mi SW 6.9 mph - N/A   Overcast
5:55 AM 55.8 °F 45.5 °F 68% 30.08 in 10.0 mi SW 5.8 mph - N/A   Overcast
6:15 AM 55.2 °F 45.5 °F 70% 30.08 in 10.0 mi SW 6.9 mph - N/A   Overcast
6:35 AM 55.8 °F 45.5 °F 68% 30.09 in 10.0 mi SW 5.8 mph - N/A   Overcast
6:55 AM 55.6 °F 45.5 °F 69% 30.09 in 10.0 mi SW 6.9 mph - N/A   Overcast
7:15 AM 55.9 °F 45.1 °F 67% 30.09 in 10.0 mi SW 6.9 mph - N/A   Overcast
7:35 AM 55.8 °F 45.0 °F 67% 30.09 in 10.0 mi SW 5.8 mph - N/A   Overcast
7:55 AM 56.3 °F 44.6 °F 65% 30.09 in 10.0 mi SW 8.1 mph - N/A   Overcast
8:15 AM 56.5 °F 44.2 °F 64% 30.09 in 10.0 mi SW 4.6 mph - N/A   Overcast
8:35 AM 56.8 °F 44.1 °F 62% 30.09 in 10.0 mi SW 5.8 mph - N/A   Overcast
8:55 AM 57.2 °F 43.9 °F 61% 30.10 in 10.0 mi SW 6.9 mph - N/A   Overcast
9:15 AM 58.3 °F 43.2 °F 57% 30.10 in 10.0 mi SW 5.8 mph - N/A   Overcast
9:35 AM 60.8 °F 41.7 °F 49% 30.10 in 10.0 mi WSW 9.2 mph - N/A   Mostly Cloudy
9:55 AM 61.7 °F 41.5 °F 48% 30.10 in 10.0 mi SW 8.1 mph - N/A   Clear
10:15 AM 62.6 °F 40.6 °F 45% 30.10 in 10.0 mi SW 6.9 mph 16.1 mph N/A   Clear
10:35 AM 64.2 °F 39.9 °F 41% 30.10 in 10.0 mi WSW 6.9 mph - N/A   Clear
10:55 AM 64.8 °F 39.2 °F 39% 30.10 in 10.0 mi WSW 9.2 mph - N/A   Clear
11:15 AM 65.5 °F 38.5 °F 37% 30.10 in 10.0 mi SW 8.1 mph 18.4 mph N/A   Clear
11:35 AM 66.0 °F 37.4 °F 35% 30.09 in 10.0 mi WSW 6.9 mph 18.4 mph N/A   Clear
11:55 AM 67.3 °F 37.6 °F 34% 30.08 in 10.0 mi SW 9.2 mph - N/A   Clear
12:15 PM 68.9 °F 36.9 °F 31% 30.08 in 10.0 mi SW 9.2 mph 16.1 mph N/A   Clear
12:35 PM 69.8 °F 36.3 °F 29% 30.08 in 10.0 mi SW 8.1 mph - N/A   Clear
12:55 PM 69.8 °F 35.8 °F 29% 30.07 in 10.0 mi WSW 9.2 mph - N/A   Clear
1:15 PM 70.7 °F 36.5 °F 29% 30.06 in 10.0 mi West 9.2 mph - N/A   Clear
1:35 PM 71.2 °F 36.1 °F 28% 30.05 in 10.0 mi WSW 9.2 mph - N/A   Clear
1:55 PM 72.1 °F 36.1 °F 27% 30.04 in 10.0 mi West 9.2 mph - N/A   Clear
2:15 PM 72.7 °F 35.6 °F 26% 30.03 in 10.0 mi West 9.2 mph 18.4 mph N/A   Clear
2:35 PM 72.1 °F 35.8 °F 26% 30.02 in 10.0 mi West 8.1 mph 18.4 mph N/A   Clear
2:55 PM 72.7 °F 35.6 °F 26% 30.01 in 10.0 mi WSW 6.9 mph - N/A   Clear
3:15 PM 73.0 °F 35.4 °F 25% 30.00 in 10.0 mi WSW 8.1 mph - N/A   Clear
3:35 PM 73.6 °F 35.2 °F 25% 30.00 in 10.0 mi West 11.5 mph 18.4 mph N/A   Clear
3:55 PM 73.6 °F 35.6 °F 25% 29.99 in 10.0 mi WSW 5.8 mph - N/A   Clear
4:15 PM 73.4 °F 35.6 °F 25% 29.99 in 10.0 mi West 6.9 mph 17.3 mph N/A   Clear
4:35 PM 73.0 °F 36.3 °F 26% 29.98 in 10.0 mi WSW 9.2 mph - N/A   Clear
4:55 PM 73.0 °F 36.7 °F 27% 29.98 in 10.0 mi WSW 6.9 mph - N/A   Clear
5:15 PM 72.7 °F 35.8 °F 26% 29.98 in 10.0 mi SW 9.2 mph - N/A   Clear
5:35 PM 72.5 °F 36.0 °F 26% 29.98 in 10.0 mi West 3.5 mph - N/A   Clear
5:55 PM 72.5 °F 35.2 °F 26% 29.98 in 10.0 mi WSW 9.2 mph - N/A   Clear
6:15 PM 72.1 °F 36.3 °F 27% 29.98 in 10.0 mi SW 3.5 mph - N/A   Clear
6:35 PM 70.7 °F 37.0 °F 29% 29.99 in 10.0 mi WSW 5.8 mph - N/A   Clear
6:55 PM 69.8 °F 37.4 °F 31% 30.00 in 10.0 mi SW 5.8 mph - N/A   Clear
7:15 PM 68.2 °F 37.8 °F 33% 30.00 in 10.0 mi SW 3.5 mph - N/A   Clear
7:35 PM 67.1 °F 38.3 °F 35% 30.00 in 10.0 mi SW 3.5 mph - N/A   Clear
7:55 PM 64.9 °F 39.0 °F 39% 30.01 in 10.0 mi Calm Calm - N/A   Clear
8:15 PM 62.2 °F 40.1 °F 44% 30.01 in 10.0 mi Calm Calm - N/A   Clear
8:35 PM 61.2 °F 40.3 °F 46% 30.02 in 10.0 mi Calm Calm - N/A   Clear
8:55 PM 60.1 °F 40.5 °F 48% 30.03 in 10.0 mi Calm Calm - N/A   Clear
9:15 PM 59.9 °F 40.6 °F 49% 30.03 in 10.0 mi Calm Calm - N/A   Clear
9:35 PM 58.3 °F 40.3 °F 51% 30.04 in 10.0 mi Calm Calm - N/A   Clear
9:55 PM 57.2 °F 41.9 °F 57% 30.04 in 10.0 mi Calm Calm - N/A   Clear
10:15 PM 56.1 °F 41.4 °F 58% 30.05 in 10.0 mi Calm Calm - N/A   Clear
10:35 PM 53.8 °F 43.0 °F 67% 30.05 in 10.0 mi Calm Calm - N/A   Clear
10:55 PM 55.0 °F 42.6 °F 63% 30.05 in 10.0 mi Calm Calm - N/A   Clear
11:15 PM 55.8 °F 41.4 °F 58% 30.05 in 10.0 mi Calm Calm - N/A   Clear
11:35 PM 55.8 °F 41.9 °F 60% 30.05 in 10.0 mi Calm Calm - N/A   Clear
11:55 PM 53.6 °F 42.4 °F 66% 30.05 in 10.0 mi Calm Calm - N/A   Clear